Weather History for KGCM - September, 2013

Change the Weather History Date:

Monday, September 9, 2013

  Actual Average (KTUL) Record (KTUL)
Temperature  
Mean Temperature 78 °F 76 °F  
Max Temperature 95 °F 87 °F 102 °F (1909)
Min Temperature 62 °F 65 °F 51 °F (1943)
Degree Days  
Heating Degree Days 0 0  
Month to date heating degree days 0  
Since 1 July heating degree days 0  
Cooling Degree Days 14 11  
Month to date cooling degree days 112  
Year to date cooling degree days 1813  
Growing Degree Days 28 (Base 50)    
Moisture  
Dew Point 63 °F    
Average Humidity 62    
Maximum Humidity 94    
Minimum Humidity 32    
Precipitation  
Precipitation 0.00 in 0.15 in 2.67 in (1951)
Month to date precipitation 1.24  
Year to date precipitation 28.72  
Sea Level Pressure  
Sea Level Pressure 29.98 in    
Wind  
Wind Speed 4 mph (South)    
Max Wind Speed 16 mph    
Max Gust Speed 23 mph    
Visibility 9 miles    
Events      
T = Trace of Precipitation, MM = Missing Value Source: NWS Daily Summary

Daily Weather History Graph

Daily Weather History Graph

Search for Another Location

Airport or City:

Trip Planner

Search our weather history database for the weather conditions in past years. The results will help you decide how hot, cold, wet, or windy it might be!

Date:

Astronomy

Sep. 09, 2013 Rise Set
Actual Time 6:59 AM CDT 7:37 PM CDT
Civil Twilight 6:33 AM CDT 8:03 PM CDT
Nautical Twilight 6:03 AM CDT 8:34 PM CDT
Astronomical Twilight 5:31 AM CDT 9:05 PM CDT
Moon 11:13 AM CDT (9/9) 10:04 PM CDT (9/9)
Length of Visible Light 13h 29m
Length of Day
12h 37m
Waxing Crescent, 19% of the Moon is Illuminated
Sep 9
Waxing Crescent
Sep 12
First Quarter
Sep 19
Full
Sep 26
Last Quarter
Oct 4
New

Hourly Weather History & Observations

Time (CDT) Temp. Heat Index Dew Point Humidity Pressure Visibility Wind Dir Wind Speed Gust Speed Precip Events Conditions
12:15 AM 71.6 °F - 64.4 °F 78% 29.95 in 10.0 mi Calm Calm - N/A   Clear
12:35 AM 71.6 °F - 64.4 °F 78% 29.95 in 10.0 mi Calm Calm - N/A   Clear
12:55 AM 71.6 °F - 64.4 °F 78% 29.95 in 10.0 mi Calm Calm - N/A   Clear
1:15 AM 69.8 °F - 64.4 °F 83% 29.95 in 10.0 mi Calm Calm - N/A   Clear
1:35 AM 71.6 °F - 64.4 °F 78% 29.95 in 10.0 mi Calm Calm - N/A   Clear
1:55 AM 71.6 °F - 64.4 °F 78% 29.96 in 10.0 mi Calm Calm - N/A   Clear
2:15 AM 69.8 °F - 64.4 °F 83% 29.96 in 10.0 mi Calm Calm - N/A   Clear
2:35 AM 69.8 °F - 64.4 °F 83% 29.96 in 10.0 mi Calm Calm - N/A   Clear
2:55 AM 68.0 °F - 64.4 °F 88% 29.96 in 10.0 mi Calm Calm - N/A   Clear
3:15 AM 68.0 °F - 64.4 °F 88% 29.96 in 7.0 mi Calm Calm - N/A   Clear
3:35 AM 68.0 °F - 62.6 °F 83% 29.96 in 7.0 mi Calm Calm - N/A   Clear
3:55 AM 64.4 °F - 62.6 °F 94% 29.97 in 7.0 mi Calm Calm - N/A   Clear
4:15 AM 64.4 °F - 62.6 °F 94% 29.97 in 7.0 mi Calm Calm - N/A   Clear
4:35 AM 64.4 °F - 62.6 °F 94% 29.97 in 7.0 mi SE 4.6 mph - N/A   Clear
4:55 AM 66.2 °F - 62.6 °F 88% 29.97 in 7.0 mi SSE 4.6 mph - N/A   Clear
5:15 AM 64.4 °F - 62.6 °F 94% 29.97 in 7.0 mi Calm Calm - N/A   Clear
5:35 AM 64.4 °F - 62.6 °F 94% 29.98 in 7.0 mi SE 4.6 mph - N/A   Clear
5:55 AM 66.2 °F - 62.6 °F 88% 29.98 in 7.0 mi SSE 3.5 mph - N/A   Clear
6:15 AM 66.2 °F - 62.6 °F 88% 29.98 in 10.0 mi SSE 5.8 mph - N/A   Clear
6:35 AM 68.0 °F - 62.6 °F 83% 29.98 in 10.0 mi SSE 4.6 mph - N/A   Clear
6:55 AM 66.2 °F - 62.6 °F 88% 29.99 in 7.0 mi Calm Calm - N/A   Clear
7:15 AM 62.6 °F - 60.8 °F 94% 30.00 in 5.0 mi SE 3.5 mph - N/A   Clear
7:35 AM 64.4 °F - 62.6 °F 94% 30.00 in 7.0 mi Calm Calm - N/A   Clear
7:55 AM 66.2 °F - 62.6 °F 88% 30.00 in 7.0 mi Calm Calm - N/A   Clear
8:15 AM 69.8 °F - 64.4 °F 83% 30.01 in 10.0 mi Calm Calm - N/A   Clear
8:35 AM 71.6 °F - 64.4 °F 78% 30.01 in 10.0 mi Calm Calm - N/A   Clear
8:55 AM 75.2 °F - 66.2 °F 73% 30.01 in 10.0 mi Calm Calm - N/A   Clear
9:15 AM 78.8 °F - 64.4 °F 61% 30.02 in 10.0 mi SSE 3.5 mph - N/A   Clear
9:35 AM 80.6 °F 81.8 °F 62.6 °F 54% 30.02 in 10.0 mi SSW 6.9 mph - N/A   Clear
9:55 AM 82.4 °F 83.9 °F 64.4 °F 54% 30.03 in 10.0 mi SSW 4.6 mph - N/A   Clear
10:15 AM 82.4 °F 83.9 °F 64.4 °F 54% 30.03 in 10.0 mi WSW 5.8 mph - N/A   Clear
10:35 AM 84.2 °F 85.6 °F 64.4 °F 51% 30.03 in 10.0 mi WSW 6.9 mph - N/A   Clear
10:55 AM 86.0 °F 87.3 °F 64.4 °F 48% 30.03 in 10.0 mi WSW 8.1 mph - N/A   Clear
11:15 AM 87.8 °F 89.4 °F 64.4 °F 46% 30.03 in 10.0 mi WSW 5.8 mph - N/A   Clear
11:35 AM 89.6 °F 91.1 °F 64.4 °F 43% 30.03 in 10.0 mi SW 6.9 mph - N/A   Clear
11:55 AM 89.6 °F 91.1 °F 64.4 °F 43% 30.03 in 10.0 mi WSW 8.1 mph - N/A   Clear
12:15 PM 91.4 °F 92.1 °F 62.6 °F 38% 30.03 in 10.0 mi SW 10.4 mph - N/A   Clear
12:35 PM 91.4 °F 92.1 °F 62.6 °F 38% 30.02 in 10.0 mi SSW 11.5 mph 17.3 mph N/A   Clear
12:55 PM 91.4 °F 92.1 °F 62.6 °F 38% 30.02 in 10.0 mi SW 10.4 mph 18.4 mph N/A   Clear
1:15 PM 93.2 °F 94.1 °F 62.6 °F 36% 30.01 in 10.0 mi SW 10.4 mph 16.1 mph N/A   Clear
1:35 PM 93.2 °F 94.1 °F 62.6 °F 36% 30.01 in 10.0 mi South 8.1 mph 17.3 mph N/A   Clear
1:55 PM 95.0 °F 95.2 °F 60.8 °F 32% 30.01 in 10.0 mi South 13.8 mph 19.6 mph N/A   Clear
2:15 PM 95.0 °F 95.2 °F 60.8 °F 32% 30.00 in 10.0 mi South 13.8 mph - N/A   Clear
2:35 PM 95.0 °F 95.2 °F 60.8 °F 32% 30.00 in 10.0 mi SSW 13.8 mph 21.9 mph N/A   Clear
2:55 PM 95.0 °F 95.2 °F 60.8 °F 32% 29.99 in 10.0 mi SSW 16.1 mph 21.9 mph N/A   Clear
3:15 PM 93.2 °F 93.3 °F 60.8 °F 34% 29.98 in 10.0 mi SSW 10.4 mph 21.9 mph N/A   Clear
3:35 PM 93.2 °F 93.3 °F 60.8 °F 34% 29.98 in 10.0 mi South 12.7 mph 18.4 mph N/A   Clear
3:55 PM 95.0 °F 95.2 °F 60.8 °F 32% 29.97 in 10.0 mi SW 13.8 mph - N/A   Clear
4:15 PM 95.0 °F 95.2 °F 60.8 °F 32% 29.97 in 10.0 mi South 15.0 mph 19.6 mph N/A   Clear
4:35 PM 93.2 °F 93.3 °F 60.8 °F 34% 29.96 in 10.0 mi South 8.1 mph 18.4 mph N/A   Clear
4:55 PM 93.2 °F 93.3 °F 60.8 °F 34% 29.96 in 10.0 mi South 10.4 mph 23.0 mph N/A   Clear
5:15 PM 91.4 °F 91.4 °F 60.8 °F 36% 29.96 in 10.0 mi SSW 13.8 mph - N/A   Clear
5:35 PM 91.4 °F 92.1 °F 62.6 °F 38% 29.96 in 10.0 mi South 10.4 mph 17.3 mph N/A   Clear
5:55 PM 89.6 °F 90.1 °F 62.6 °F 40% 29.96 in 10.0 mi South 8.1 mph - N/A   Clear
6:15 PM 89.6 °F 90.1 °F 62.6 °F 40% 29.96 in 10.0 mi SSE 5.8 mph - N/A   Clear
6:35 PM 89.6 °F 91.1 °F 64.4 °F 43% 29.95 in 10.0 mi SSE 6.9 mph - N/A   Clear
6:55 PM 87.8 °F 89.4 °F 64.4 °F 46% 29.95 in 10.0 mi South 4.6 mph - N/A   Clear
7:15 PM 86.0 °F 86.6 °F 62.6 °F 45% 29.95 in 10.0 mi South 5.8 mph - N/A   Clear
7:35 PM 82.4 °F 83.4 °F 62.6 °F 51% 29.95 in 10.0 mi South 5.8 mph - N/A   Clear
7:55 PM 80.6 °F 81.8 °F 62.6 °F 54% 29.95 in 10.0 mi South 5.8 mph - N/A   Clear
8:15 PM 78.8 °F - 62.6 °F 57% 29.96 in 10.0 mi South 6.9 mph - N/A   Clear
8:35 PM 78.8 °F - 62.6 °F 57% 29.96 in 10.0 mi South 5.8 mph - N/A   Clear
8:55 PM 78.8 °F - 62.6 °F 57% 29.97 in 10.0 mi SSE 4.6 mph - N/A   Clear
9:15 PM 77.0 °F - 62.6 °F 61% 29.98 in 10.0 mi SE 5.8 mph - N/A   Clear
9:35 PM 77.0 °F - 62.6 °F 61% 29.98 in 10.0 mi SSE 6.9 mph - N/A   Clear
9:55 PM 77.0 °F - 62.6 °F 61% 29.99 in 10.0 mi SE 5.8 mph - N/A   Clear
10:15 PM 75.2 °F - 62.6 °F 65% 29.99 in 10.0 mi SE 6.9 mph - N/A   Clear
10:35 PM 73.4 °F - 62.6 °F 69% 30.00 in 10.0 mi SSE 6.9 mph - N/A   Clear
10:55 PM 71.6 °F - 62.6 °F 73% 30.00 in 10.0 mi South 6.9 mph - N/A   Clear
11:15 PM 73.4 °F - 62.6 °F 69% 30.00 in 10.0 mi SSE 5.8 mph - N/A   Clear
11:35 PM 73.4 °F - 62.6 °F 69% 30.00 in 10.0 mi South 4.6 mph - N/A   Clear
11:55 PM 73.4 °F - 62.6 °F 69% 30.00 in 10.0 mi SSE 4.6 mph - N/A   Clear